User: anonymous   Login
Location: Possagno
(45.8500°N, 11.8667°E)
Time: 04:28:19
(UTC+00:00)
Language:

UKube-1 - Orbit

View from above orbital plane
View from above orbital plane
View from above satellite
View from above satellite

Ground track
Ground track

The orbit data is extracted from the following two-line orbital elements,

1 40074U 14037F   21289.56155889  .00000812  00000-0  10301-3 0  9998
2 40074  98.4141 152.1244 0004746   9.4464 350.6833 14.84671964393879
Epoch (UTC): 16 October 2021 13:28:38
Eccentricity: 0.0004746
inclination: 98.4141°
perigee height: 611 km
apogee height: 618 km
right ascension of ascending node: 152.1244°
argument of perigee: 9.4464°
revolutions per day: 14.84671964
mean anomaly at epoch: 350.6833°
orbit number at epoch: 39387

The dashed part of the orbit path shows where the satellite is in the earth's shadow,  

DLR